Hourly Data Report for September 06, 2006

TORONTO CITY
ONTARIO

43°40'00.000" N
79°24'00.000" W
112.50 m
6158355
71508
XTO

Download Data

Hourly Data (September 2006)
Hourly Data Report for September 6, 2006
TIME
LST
Temp Definition
°C
Dew Point Definition
°C
Rel Hum Definition
%
Precip. Amount Definition
mm

Wind Dir Definition
10's deg

Wind Spd Definition
km/h
Visibility Definition
km
Stn Press Definition
kPa
Hmdx Definition


Wind Chill Definition


Weather Definition


00:00 17.0 15.5 91   LegendMM LegendMM   100.06     LegendNANA
01:00 16.2 15.3 94   LegendMM LegendMM   100.04     LegendNANA
02:00 16.1 15.5 96   LegendMM LegendMM   100.02     LegendNANA
03:00 16.1 15.6 97   LegendMM LegendMM   99.99     LegendNANA
04:00 16.1 15.5 96   LegendMM LegendMM   99.98     LegendNANA
05:00 16.3 14.9 91   LegendMM LegendMM   99.98     LegendNANA
06:00 15.9 14.3 90   LegendMM LegendMM   100.02     LegendNANA
07:00 16.5 14.6 89   LegendMM LegendMM   100.08     LegendNANA
08:00 18.3 15.1 82   LegendMM LegendMM   100.11     LegendNANA
09:00 18.9 16.4 85   LegendMM LegendMM   100.13     LegendNANA
10:00 20.1 17.6 86   LegendMM LegendMM   100.19 26   LegendNANA
11:00 22.0 17.1 74   LegendMM LegendMM   100.20 27   LegendNANA
12:00 22.0 16.8 72   LegendMM LegendMM   100.19 27   LegendNANA
13:00 23.3 18.1 73   LegendMM LegendMM   100.19 29   LegendNANA
14:00 22.8 18.0 74   LegendMM LegendMM   100.18 29   LegendNANA
15:00 21.1 17.3 79   LegendMM LegendMM   100.18 27   LegendNANA
16:00 22.1 17.6 76   LegendMM LegendMM   100.17 28   LegendNANA
17:00 20.6 17.2 81   LegendMM LegendMM   100.20 26   LegendNANA
18:00 20.5 17.1 81   LegendMM LegendMM   100.21 26   LegendNANA
19:00 20.1 16.9 82   LegendMM LegendMM   100.27 25   LegendNANA
20:00 20.0 17.3 84   LegendMM LegendMM   100.34 25   LegendNANA
21:00 19.9 16.7 82   LegendMM LegendMM   100.38     LegendNANA
22:00 18.6 15.6 83   LegendMM LegendMM   100.39     LegendNANA
23:00 18.0 15.2 84   LegendMM LegendMM   100.39     LegendNANA

Notes on Data Quality.

Legend

  • E = Estimated
  • M = Missing
  • NA = Not Available*
  • [empty] = Indicates an unobserved value
Date modified: